Weather in Moquegua

Peru     17°11′35″S   70°56′20″W
temp.,
°C
wind,
m/s
gust,
m/s
humid.,
%
clouds,
%
prec.,
mm/h
press.,
hPa
HPBL,
m
27 october, wed
wed2701:00+17n22400 0.0 101511
04:00+15nne11444 0.0 101511
07:00+21sw11265 0.0 1016208
10:00+25s43170 0.0 10141099
13:00+27s76190 0.0 10121585
16:00+23s75310 0.0 10131199
19:00+18sse11470 0.0 1016166
22:00+18wsw11470 0.0 101616
28 october, thu
thu2801:00+16n11510 0.0 101511
04:00+16n11470 0.0 101411
07:00+20sw10340 0.0 1016216
10:00+25ssw33200 0.0 10141153
13:00+27s85180 0.0 10121632
16:00+23s75320 0.0 10131057
19:00+19sse2246100 0.0 1017169
22:00+18s225197 0.0 101770
29 october, fri
fri2901:00+17sw0054100 0.0 101512
04:00+16s1155100 0.0 101511
07:00+18ssw114514 0.0 1016198
10:00+23s322630 0.0 1015954
13:00+25s752431 0.0 10121353
16:00+22s543592 0.0 1012894
19:00+18s224798 0.0 1014154
22:00+16ssw015859 0.0 101549
30 october, sat
sat3001:00+16nne0058100 0.0 101425
04:00+15sse1159100 0.0 101411
07:00+18s114699 0.0 1015206
10:00+23ssw4223100 0.0 1014896
13:00+25s6422100 0.0 10111356
16:00+22sse543338 0.0 1011950
19:00+18s21452 0.0 1014128
22:00+17w005010 0.0 101533
31 october, sun
sun3101:00+16ene0050100 0.0 101411
04:00+15ese005399 0.0 101411
07:00+19s113954 0.0 1015224
10:00+25ssw3224100 0.0 1013919
13:00+27s852187 0.0 10111519
16:00+22s543445 0.0 1013909
19:00+18s224781 0.0 1015137
22:00+17ssw115299 0.0 101741